| time (UTC) | temp C | wind direction | speed KPH | gust KPH | rain 1hr cm | rain 24hr cm | rain mn cm | humidity % | barometer mb |
| 20260503180033 | 13 | 265 | 6.4 | 19.3 | 0.00 | 0.00 | 0.00 | 46 | 1010.5 |
| 20260503174517 | 14 | 232 | 11.3 | 33.8 | 0.00 | 0.00 | 0.00 | 45 | 1010.9 |
| 20260503173017 | 15 | 221 | 16.1 | 27.4 | 0.00 | 0.00 | 0.00 | 43 | 1010.8 |
| 20260503171531 | 14 | 225 | 11.3 | 30.6 | 0.00 | 0.00 | 0.00 | 45 | 1010.9 |
| 20260503081535 | 0 | 242 | 0.0 | 3.2 | 0.00 | 0.00 | 0.00 | 80 | 1013.9 |
| 20260503071517 | 0 | 236 | 0.0 | 0.0 | 0.00 | 0.00 | 0.00 | 80 | 1014.0 |
| 20260503054534 | 1 | 255 | 0.0 | 0.0 | 0.00 | 0.00 | 0.00 | 73 | 1014.8 |
| 20260503053009 | 2 | 231 | 0.0 | 4.8 | 0.00 | 0.00 | 0.00 | 70 | 1014.9 |
| 20260503051512 | 2 | 283 | 1.6 | 8.0 | 0.00 | 0.00 | 0.00 | 68 | 1014.9 |
| 20260503050015 | 2 | 249 | 1.6 | 4.8 | 0.00 | 0.00 | 0.00 | 70 | 1014.9 |
| 20260503044518 | 1 | 260 | 1.6 | 4.8 | 0.00 | 0.00 | 0.00 | 73 | 1015.0 |
| 20260503043024 | 0 | 262 | 1.6 | 3.2 | 0.00 | 0.00 | 0.00 | 79 | 1015.0 |
| 20260503041506 | 0 | 253 | 0.0 | 3.2 | 0.00 | 0.00 | 0.00 | 84 | 1015.0 |
| 20260503040013 | 0 | 253 | 0.0 | 0.0 | 0.00 | 0.00 | 0.00 | 85 | 1015.2 |
| 20260503034518 | 0 | 253 | 0.0 | 0.0 | 0.00 | 0.00 | 0.00 | 84 | 1015.2 |
| 20260503033032 | 0 | 240 | 0.0 | 0.0 | 0.00 | 0.00 | 0.00 | 84 | 1015.3 |
| 20260503031524 | 0 | 240 | 0.0 | 0.0 | 0.00 | 0.00 | 0.00 | 83 | 1015.4 |
| 20260503030010 | 0 | 240 | 0.0 | 0.0 | 0.00 | 0.00 | 0.00 | 83 | 1015.4 |
| 20260503024518 | 1 | 240 | 0.0 | 0.0 | 0.00 | 0.00 | 0.00 | 81 | 1015.5 |
| 20260503023021 | 1 | 240 | 0.0 | 0.0 | 0.00 | 0.00 | 0.00 | 81 | 1015.7 |
| 20260503021526 | 1 | 240 | 0.0 | 0.0 | 0.00 | 0.00 | 0.00 | 81 | 1015.7 |
| 20260503020006 | 1 | 240 | 0.0 | 0.0 | 0.00 | 0.00 | 0.00 | 80 | 1015.6 |
| 20260503014511 | 1 | 240 | 0.0 | 3.2 | 0.00 | 0.00 | 0.00 | 78 | 1015.4 |
| 20260503013003 | 2 | 240 | 0.0 | 0.0 | 0.00 | 0.00 | 0.00 | 77 | 1015.4 |
| 20260503011503 | 2 | 240 | 0.0 | 3.2 | 0.00 | 0.00 | 0.00 | 75 | 1015.3 |
| 20260503010006 | 3 | 240 | 0.0 | 3.2 | 0.00 | 0.00 | 0.00 | 71 | 1015.3 |
| 20260503004520 | 4 | 240 | 0.0 | 3.2 | 0.00 | 0.00 | 0.00 | 69 | 1015.2 |
| 20260503003015 | 5 | 240 | 0.0 | 3.2 | 0.00 | 0.00 | 0.00 | 63 | 1015.1 |
| 20260503001504 | 6 | 240 | 0.0 | 3.2 | 0.00 | 0.00 | 0.00 | 58 | 1015.2 |
| 20260503000006 | 7 | 240 | 0.0 | 3.2 | 0.00 | 0.00 | 0.00 | 51 | 1015.2 |
| 20260502234507 | 7 | 293 | 1.6 | 6.4 | 0.00 | 0.00 | 0.00 | 47 | 1015.2 |
| 20260502233012 | 8 | 223 | 4.8 | 16.1 | 0.00 | 0.00 | 0.00 | 48 | 1015.3 |
| 20260502231518 | 8 | 237 | 3.2 | 11.3 | 0.00 | 0.00 | 0.00 | 47 | 1015.4 |
| 20260502230007 | 8 | 242 | 6.4 | 16.1 | 0.00 | 0.00 | 0.00 | 44 | 1015.4 |
| 20260502224507 | 7 | 223 | 3.2 | 8.0 | 0.00 | 0.00 | 0.00 | 47 | 1015.5 |
| 20260502223009 | 7 | 237 | 4.8 | 12.9 | 0.00 | 0.00 | 0.00 | 47 | 1015.5 |
| 20260502221512 | 8 | 303 | 3.2 | 11.3 | 0.00 | 0.00 | 0.00 | 44 | 1015.4 |
| 20260502220020 | 8 | 331 | 1.6 | 12.9 | 0.00 | 0.00 | 0.00 | 45 | 1015.5 |
| 20260502214511 | 7 | 252 | 6.4 | 12.9 | 0.00 | 0.00 | 0.00 | 47 | 1015.6 |
| 20260502213008 | 7 | 281 | 3.2 | 12.9 | 0.00 | 0.00 | 0.00 | 48 | 1015.7 |
| 20260502211528 | 7 | 242 | 3.2 | 12.9 | 0.00 | 0.00 | 0.00 | 47 | 1015.8 |
| 20260502210018 | 7 | 298 | 4.8 | 14.5 | 0.00 | 0.00 | 0.00 | 45 | 1015.7 |
| 20260502204522 | 7 | 303 | 3.2 | 11.3 | 0.00 | 0.00 | 0.00 | 47 | 1015.9 |
| 20260502203005 | 7 | 267 | 1.6 | 12.9 | 0.00 | 0.00 | 0.00 | 51 | 1016.0 |
| 20260502201510 | 7 | 220 | 4.8 | 16.1 | 0.00 | 0.00 | 0.00 | 47 | 1016.2 |
| 20260502200020 | 7 | 257 | 3.2 | 9.7 | 0.00 | 0.00 | 0.00 | 48 | 1016.3 |
| 20260502194520 | 7 | 292 | 6.4 | 16.1 | 0.00 | 0.00 | 0.00 | 51 | 1016.4 |
| 20260502193024 | 7 | 262 | 4.8 | 12.9 | 0.00 | 0.00 | 0.00 | 48 | 1016.5 |
| 20260502191508 | 7 | 247 | 8.0 | 11.3 | 0.00 | 0.00 | 0.00 | 50 | 1016.8 |
| 20260502190012 | 6 | 290 | 1.6 | 12.9 | 0.00 | 0.00 | 0.00 | 50 | 1016.9 |
| 20260502184529 | 7 | 318 | 4.8 | 16.1 | 0.00 | 0.00 | 0.00 | 51 | 1016.8 |
| 20260502183035 | 7 | 297 | 3.2 | 14.5 | 0.00 | 0.00 | 0.00 | 51 | 1016.9 |
| 20260502181536 | 7 | 280 | 3.2 | 16.1 | 0.00 | 0.00 | 0.00 | 53 | 1017.0 |